DECAYED

STARLINK-2025, 47607 (Decayed)

Orbit data source: Space-Track

STARLINK-2025, 47607 was a payload satellite owned by SpaceX/Seattle (US) in LEO that was launched on Thu, 04 Feb 2021 UTC via an FALCON 9 launch vehicle from the Air Force Eastern Test Range (AFETR). Payload-class satellites include a variety of spacecraft equipped with specific instruments for various scientific and technological missions. These include communications satellites like Starlink; space stations such as the ISS; scientific satellites like the Hubble; Earth observation satellites from companies like Planet Labs, Umbra, and HawkEye 360; GPS; miniature CubeSats for education and research; and military/defense satellites.

Not visible in the next 10 days
Identifier
47607, 2021-009BM
Orbit
Decayed
Country
Flag of USUS
Related business
Manufacturer
SpaceX/Seattle
Mission
Decayed Commercial Communications
Bus & Motor
STARLINK, Unknown motor
Mass
260 kg wet, ~248 kg dry
Launch date (UTC)
2021-02-04 (5 years ago)
Launch vehicle
FALCON 9
Launch site
Air Force Eastern Test Range (AFETR)
Object type
Payload
Rocket body
Debris
Shape & HBR
Box + 1 Pan, 10.1 m
Radar Cross Section
13.562 m², Large (>1 m²)

Expand to show TLE details & history
Last TLE update: 1 year ago

TLE from 1 year ago
0 STARLINK-2025
1 47607U 21009BM  25084.05370304  .18765101  12548-4  52924-3 0  9995
2 47607  53.0148  87.5079 0002513 320.0201 142.2026 16.45480461229595
Epoch: 2025-03-25T01:17Z
TLE epoch observation values (Epoch: 2025-03-25T01:17:19.942Z)
Latitude
51.47602°
Longitude
-4.73459°
Altitude
158.649 km
Speed
7.817 km/s
True Right ascension
13h 09m 26s
True Declination
51° 17' 34"
Sunlit
Object was in full shadow at epoch
Visualization orbit readout
Latitude
Unknown
Longitude
Unknown
Altitude
Unknown
Speed
Unknown
Apparent Right ascension
Unknown
Apparent Declination
Unknown
Sunlit
N/A
Visualization observer readout
Local Sidereal Time
23:08:49
Azimuth
Unknown
Elevation
Unknown
Doppler factor
Unknown
Orbital elements
Apogee altitude
153.198 km
Perigee altitude
149.917 km
Semi-major axis
6,529.695 km
Eccentricity
0.00025
Inclination
53.0148°
RAAN
87.5079°
Arg. of periapsis
320.0201°
True anomaly
142.22024°
Mean anomaly
142.2026°
Eccentric anomaly
142.21142°
Mean motion
4.11343 °/min
Orbital period
87.52 mins
BSTAR
0.00052924
Loading maneuver chart data...
Computing Atmospheric mass density...

Documentation

Showing up to 5 results
|